Regional Weather Roundup
Issued by NWS

Home | Current Version | Previous Version | Graphics & Text | Print | Product List | Glossary On
Versions: 1 2 3 4 5 6 7 8 9 10 11 12 13 14 15 16 17 18 19 20 21 22 23 24 25 26 27 28 29 30 31 32 33 34 35 36 37 38 39 40 41 42 43 44 45 46 47 48 49 50
000
ASUS43 KFSD 260602
RWRSD

WEATHER ROUNDUP FOR SOUTH DAKOTA
NATIONAL WEATHER SERVICE SIOUX FALLS SD
1200 AM CST FRI DEC 26 2014

NOTE: "FAIR" INDICATES FEW OR NO CLOUDS BELOW 12,000 FEET WITH NO
SIGNIFICANT WEATHER AND/OR OBSTRUCTIONS TO VISIBILITY.


SDZ001>005-009-010-012>017-260700-
NORTHWEST AND NORTH CENTRAL SOUTH DAKOTA

CITY           SKY/WX    TMP DP  RH WIND       PRES   REMARKS
BUFFALO          N/A     21  16  81 NW9       29.95R WCI  11
FAITH            N/A     23  16  74 N15       30.00R WCI  10
MOBRIDGE       CLOUDY    27  21  78 NW13      29.97R WCI  16
$$

SDZ012>016-024>037-041>051-057-063-072>074-260700-
SOUTHWEST AND SOUTH CENTRAL SOUTH DAKOTA

CITY           SKY/WX    TMP DP  RH WIND       PRES   REMARKS
RAPID CTY ARPT CLOUDY    21  17  84 N17       29.98R WCI   7
PIERRE         CLOUDY    26  21  81 N15       29.97S WCI  14
CUSTER         CLOUDY    13   9  84 NW5       29.84R WCI   5
ELLSWORTH AFB  CLOUDY    21  18  88 N13       29.98R WCI   9
PHILIP         CLOUDY    25  20  81 NW10      30.00R WCI  15
PINE RIDGE     MIX PCPN  22  18  85 N15G23    29.97R FOG     WCI   9
WINNER         CLOUDY    26  23  88 N13       29.95R WCI  15
$$

SDZ004>011-016>023-039-040-260700-
NORTHEAST SOUTH DAKOTA

CITY           SKY/WX    TMP DP  RH WIND       PRES   REMARKS
ABERDEEN       CLOUDY    28  22  78 N15       29.98R WCI  16
WATERTOWN      LGT SNOW  26  23  88 N13       29.88F FOG     WCI  15
SISSETON         N/A     26  23  88 N16       29.95S WCI  14
$$

SDZ017-020-022-023-036>040-048>070-260700-
SOUTHEAST SOUTH DAKOTA

CITY           SKY/WX    TMP DP  RH WIND       PRES   REMARKS
SIOUX FALLS    CLOUDY    29  26  89 N16G23    29.84R WCI  17
HURON          LGT SNOW  26  24  92 N15       29.93S FOG     WCI  14
MITCHELL       CLOUDY    28  25  88 N16       29.92R WCI  16
YANKTON        CLOUDY    30  25  80 N17G23    29.87R WCI  18
$$

ABBREVIATIONS USED IN REMARKS
   TC - TEMPERATURE IN CELSIUS
  WCI - WIND CHILL INDEX
   HX - HEAT INDEX
  VSB - VISIBILITY



USA.gov is the U.S. government's official web portal to all federal, state and local government web resources and services.